Location: Ajisawe
(8.4333°N, 4.3833°E)
Time: 14:11:34
(UTC+00:00)

Courier 1B Rocket - Pass Details

Date: 27 April 2021
Orbit: 920 x 1202 km, 28.2° (Epoch: 07 May)

Event Time Altitude Azimuth Distance (km) Brightness Sun altitude
Rises 02:02:37 0° 266° (W) 4,000 - -48.2°
Reaches altitude 10° 02:06:33 10° 247° (WSW) 3,079 - -47.4°
Maximum altitude 02:11:14 17° 209° (SSW) 2,609 - -46.4°
Drops below altitude 10° 02:16:00 10° 171° (S) 3,127 - -45.4°
Sets 02:20:05 0° 152° (SSE) 4,090 - -44.5°
